Satellite-Ground Cal/Val Region Overpasses Predictions

Prediction of Satellite NPP Overpassing Cal/Val Region: PacNW

Region Location: (Latitude: 10.00, Longitude: 139.50) to (Latitude: 22.70, Longitude: 165.60).

Table of predicted overpasses for the next 14.0 days since TLE Epoch: 9/25/2021
Interval Starting Time Starting Location Ending Time Ending Location
1 09/25/2021 02:21:06 ( 10.01, 164.51) 09/25/2021 02:24:42 ( 22.69, 161.49)
2 09/25/2021 14:53:00 ( 22.66, 161.74) 09/25/2021 14:56:35 ( 10.04, 158.73)
3 09/26/2021 03:43:34 ( 10.02, 143.89) 09/26/2021 03:47:10 ( 22.70, 140.87)
4 09/26/2021 14:35:00 ( 19.01, 165.60) 09/26/2021 14:37:33 ( 10.03, 163.49)
5 09/26/2021 16:15:28 ( 22.65, 141.12) 09/26/2021 16:17:21 ( 16.02, 139.51)
6 09/27/2021 03:24:33 ( 10.02, 148.64) 09/27/2021 03:28:08 ( 22.65, 145.64)
7 09/27/2021 15:56:26 ( 22.70, 145.89) 09/27/2021 16:00:02 ( 10.02, 142.87)
8 09/28/2021 03:05:31 ( 10.03, 153.40) 09/28/2021 03:09:06 ( 22.65, 150.39)
9 09/28/2021 15:37:24 ( 22.69, 150.65) 09/28/2021 15:41:00 ( 10.01, 147.63)
10 09/29/2021 02:46:30 ( 10.04, 158.16) 09/29/2021 02:50:05 ( 22.66, 155.15)
11 09/29/2021 15:18:23 ( 22.69, 155.40) 09/29/2021 15:21:59 ( 10.01, 152.38)
12 09/30/2021 02:27:29 ( 10.05, 162.91) 09/30/2021 02:31:04 ( 22.67, 159.91)
13 09/30/2021 14:59:21 ( 22.68, 160.16) 09/30/2021 15:02:57 ( 10.00, 157.14)
14 10/01/2021 02:10:58 ( 18.92, 165.59) 10/01/2021 02:12:02 ( 22.68, 164.66)
15 10/01/2021 03:49:57 ( 10.06, 142.29) 10/01/2021 03:53:17 ( 21.80, 139.51)
16 10/01/2021 14:40:20 ( 22.67, 164.92) 10/01/2021 14:43:55 ( 10.05, 161.91)
17 10/01/2021 16:21:50 ( 22.67, 139.54) 10/01/2021 16:21:52 ( 22.55, 139.51)
18 10/02/2021 03:30:55 ( 10.01, 147.06) 10/02/2021 03:34:31 ( 22.69, 144.04)
19 10/02/2021 16:02:48 ( 22.66, 144.30) 10/02/2021 16:06:23 ( 10.04, 141.29)
20 10/03/2021 03:11:53 ( 10.02, 151.82) 10/03/2021 03:15:29 ( 22.70, 148.80)
21 10/03/2021 15:43:47 ( 22.65, 149.05) 10/03/2021 15:47:22 ( 10.03, 146.05)
22 10/04/2021 02:52:52 ( 10.03, 156.57) 10/04/2021 02:56:27 ( 22.65, 153.57)
23 10/04/2021 15:24:45 ( 22.64, 153.81) 10/04/2021 15:28:20 ( 10.02, 150.80)
24 10/05/2021 02:33:50 ( 10.04, 161.33) 10/05/2021 02:37:25 ( 22.66, 158.32)
25 10/05/2021 15:05:43 ( 22.69, 158.58) 10/05/2021 15:09:19 ( 10.02, 155.56)
26 10/06/2021 02:15:25 ( 12.16, 165.60) 10/06/2021 02:18:24 ( 22.67, 163.08)
27 10/06/2021 03:56:19 ( 10.05, 140.71) 10/06/2021 03:57:47 ( 15.22, 139.51)
28 10/06/2021 14:46:41 ( 22.68, 163.33) 10/06/2021 14:50:17 ( 10.01, 160.32)
29 10/07/2021 03:37:16 ( 10.00, 145.48) 10/07/2021 03:40:52 ( 22.69, 142.46)
30 10/07/2021 14:30:37 ( 12.29, 165.60) 10/07/2021 14:31:15 ( 10.05, 165.08)
31 10/07/2021 16:09:10 ( 22.67, 142.71) 10/07/2021 16:12:45 ( 10.05, 139.71)
32 10/08/2021 03:18:15 ( 10.01, 150.23) 10/08/2021 03:21:51 ( 22.70, 147.21)
